Weather History for MROC - December, 2011

Change the Weather History Date:

Friday, December 23, 2011

  Actual Average Record
Temperature  
Mean Temperature 74 °F -  
Max Temperature 84 °F 80 °F 86 °F (2004)
Min Temperature 63 °F 63 °F 62 °F (2010)
Cooling Degree Days 8    
Growing Degree Days 24 (Base 50)    
Moisture  
Dew Point 65 °F    
Average Humidity 77    
Maximum Humidity 94    
Minimum Humidity 38    
Precipitation  
Precipitation 0.00 in 0.02 in - ()
Sea Level Pressure  
Sea Level Pressure 29.94 in    
Wind  
Wind Speed 5 mph ()    
Max Wind Speed 21 mph    
Max Gust Speed -    
Visibility 7.0 miles    
Events Rain    
Averages and records for this station are not official NWS values.
T = Trace of Precipitation, MM = Missing Value Source: Averaged Metar Reports

Daily Weather History Graph

Daily Weather History Graph

Search for Another Location

Airport or City:

Trip Planner

Search our weather history database for the weather conditions in past years. The results will help you decide how hot, cold, wet, or windy it might be!

Date:

Astronomy

Dec. 23, 2011 Rise Set
Actual Time 5:49 AM CST 5:22 PM CST
Civil Twilight 5:26 AM CST 5:45 PM CST
Nautical Twilight 5:00 AM CST 6:11 PM CST
Astronomical Twilight 4:34 AM CST 6:37 PM CST
Moon 4:36 AM CST (12/23) 4:31 PM CST (12/23)
Length of Visible Light 12h 18m
Length of Day
11h 32m
Waning Crescent, 1% of the Moon is Illuminated
Dec 23
Waning Crescent
Dec 24
New
Jan 1
First Quarter
Jan 9
Full
Jan 16
Last Quarter

Hourly Weather History & Observations

Time (CST) Temp. Heat Index Dew Point Humidity Pressure Visibility Wind Dir Wind Speed Gust Speed Precip Events Conditions
12:00 AM 70 °F - 68 °F 91% 29.81 in 12 mi East 3.5 mph - -   Scattered Clouds
12:00 AM 66.2 °F - 64.4 °F 94% 29.97 in 6.2 mi Calm Calm - N/A   Unknown
1:00 AM 66.2 °F - 64.4 °F 94% 29.95 in 6.2 mi Calm Calm - N/A   Unknown
2:00 AM 66.2 °F - 62.6 °F 88% 29.93 in 6.2 mi ENE 4.6 mph - N/A   Unknown
3:00 AM 64 °F - 63 °F 94% 29.79 in 12 mi Calm Calm - -  
3:00 AM 64.4 °F - 62.6 °F 94% 29.94 in 6.2 mi Calm Calm - N/A   Unknown
4:00 AM 64.4 °F - 62.6 °F 94% - 6.2 mi Calm Calm - N/A   Unknown
5:00 AM 64.4 °F - 62.6 °F 94% 29.96 in 6.2 mi NE 2.3 mph - N/A   Unknown
6:00 AM 66 °F - 64 °F 90% 29.84 in 12 mi NE 2.3 mph - -  
6:00 AM 66.2 °F - 62.6 °F 88% 29.98 in 6.2 mi NE 2.3 mph - N/A   Unknown
7:00 AM 69.8 °F - 66.2 °F 88% 30.00 in 6.2 mi East 4.6 mph - N/A   Mostly Cloudy
8:00 AM 73.4 °F - 66.2 °F 78% 30.00 in 6.2 mi ESE 13.8 mph - N/A   Scattered Clouds
9:00 AM 78.8 °F - 64.4 °F 61% 30.01 in 6.2 mi ESE 10.4 mph - N/A   Mostly Cloudy
10:00 AM 80.6 °F 81.8 °F 62.6 °F 54% 30.01 in 6.2 mi East 15.0 mph - N/A   Scattered Clouds
11:00 AM 80.6 °F 81.8 °F 62.6 °F 54% 29.99 in 6.2 mi East 13.8 mph - N/A   Scattered Clouds
12:00 PM 82 °F - 61 °F 38% 29.79 in 12 mi East 20.7 mph - -   Partly Cloudy
12:00 PM 82.4 °F 83.4 °F 62.6 °F 51% 29.96 in 6.2 mi East 20.7 mph - N/A   Mostly Cloudy
1:00 PM 82.4 °F 83.9 °F 64.4 °F 54% 29.93 in 6.2 mi ESE 12.7 mph - N/A   Mostly Cloudy
2:00 PM 84.2 °F 85.6 °F 64.4 °F 51% 29.91 in 6.2 mi East 15.0 mph - N/A   Scattered Clouds
3:00 PM 80.6 °F 82.3 °F 64.4 °F 58% 29.90 in 6.2 mi SE 6.9 mph - N/A   Scattered Clouds
4:00 PM 77.0 °F - 68.0 °F 74% 29.91 in 6.2 mi ESE 9.2 mph - N/A   Scattered Clouds
5:00 PM 73.4 °F - 68.0 °F 83% 29.94 in 6.2 mi SE 9.2 mph - N/A Rain Light Rain
6:00 PM 73.4 °F - 66.2 °F 78% 29.93 in 6.2 mi East 3.5 mph - N/A   Scattered Clouds
7:00 PM 71.6 °F - 66.2 °F 83% 29.95 in 6.2 mi ESE 6.9 mph - N/A   Scattered Clouds
8:00 PM 71.6 °F - 66.2 °F 83% 29.97 in 6.2 mi ESE 3.5 mph - N/A   Scattered Clouds
9:00 PM 73.4 °F - 64.4 °F 73% 29.99 in 6.2 mi ESE 9.2 mph - N/A   Scattered Clouds
10:00 PM 71.6 °F - 66.2 °F 83% 29.99 in 6.2 mi ESE 10.4 mph - N/A   Scattered Clouds
11:00 PM 71.6 °F - 66.2 °F 83% 29.98 in 6.2 mi ESE 8.1 mph - N/A   Scattered Clouds